Saint Cloud, MN

4:14 AM CDT on September 29, 2016 (GMT -0500)
Saint Cloud Regional

Weather History for KSTC - January, 2014

Change the Weather History Date:

Sunday, January 12, 2014

  Actual Average Record
Temperature  
Mean Temperature 30 °F 11 °F  
Max Temperature 39 °F 21 °F 49 °F (1987)
Min Temperature 21 °F 2 °F -40 °F (1912)
Degree Days  
Heating Degree Days 35 54  
Month to date heating degree days 758 641  
Since 1 July heating degree days 4446 4088  
Cooling Degree Days 0 0  
Month to date cooling degree days 0 0  
Year to date cooling degree days 0 0  
Moisture  
Dew Point 26 °F    
Average Humidity 81    
Maximum Humidity 92    
Minimum Humidity 70    
Precipitation  
Precipitation 0.00 in 0.03 in 0.53 in (2005)
Month to date precipitation 0.13 0.29  
Year to date precipitation 0.13 0.29  
Snow  
Snow 0.00 in 0.30 in 6.20 in (2005)
Month to date snowfall 0.1 3.6  
Since 1 July snowfall 24.1 22.2  
Snow Depth 8.00 in    
Sea Level Pressure  
Sea Level Pressure 29.47 in    
Wind  
Wind Speed 8 mph (SSW)    
Max Wind Speed 14 mph    
Max Gust Speed 16 mph    
Visibility 10 miles    
Events      
T = Trace of Precipitation, MM = Missing Value Source: NWS Daily Summary

Daily Weather History Graph

Daily Weather History Graph

Search for Another Location

Airport or City:

Trip Planner

Search our weather history database for the weather conditions in past years. The results will help you decide how hot, cold, wet, or windy it might be!

Date:

Astronomy

Jan. 12, 2014 Rise Set
Actual Time 7:54 AM CST 4:55 PM CST
Civil Twilight 7:20 AM CST 5:28 PM CST
Nautical Twilight 6:43 AM CST 6:05 PM CST
Astronomical Twilight 6:08 AM CST 6:41 PM CST
Moon 2:24 PM CST (1/12) 4:52 AM CST (1/12)
Length of Visible Light 10h 07m
Length of Day
9h 01m
Waxing Gibbous, 90% of the Moon is Illuminated
Jan 12
Waxing Gibbous
Jan 15
Full
Jan 23
Last Quarter
Jan 30
New
Feb 6
First Quarter

Hourly Weather History & Observations

Time (CST) Temp. Windchill Dew Point Humidity Pressure Visibility Wind Dir Wind Speed Gust Speed Precip Events Conditions
12:53 AM 21.0 °F 12.4 °F 18.0 °F 88% 29.61 in 6.0 mi SE 6.9 mph - N/A   Overcast
1:53 AM 21.0 °F 8.6 °F 19.0 °F 92% 29.56 in 7.0 mi SE 12.7 mph - N/A   Overcast
2:53 AM 21.9 °F 11.0 °F 19.9 °F 92% 29.54 in 8.0 mi SE 10.4 mph - N/A   Scattered Clouds
3:53 AM 24.1 °F 13.7 °F 21.0 °F 88% 29.48 in 10.0 mi SE 10.4 mph - N/A   Overcast
4:53 AM 25.0 °F 17.1 °F 21.9 °F 88% 29.45 in 10.0 mi ESE 6.9 mph - N/A   Mostly Cloudy
5:53 AM 27.0 °F 18.7 °F 21.9 °F 81% 29.42 in 10.0 mi SE 8.1 mph - N/A   Overcast
6:53 AM 28.0 °F 20.8 °F 23.0 °F 81% 29.41 in 10.0 mi SE 6.9 mph - N/A   Overcast
7:53 AM 30.0 °F 22.4 °F 24.1 °F 79% 29.37 in 10.0 mi ESE 8.1 mph - N/A   Mostly Cloudy
8:53 AM 28.9 °F 25.2 °F 24.1 °F 82% 29.41 in 10.0 mi SSW 3.5 mph - N/A   Overcast
9:53 AM 30.0 °F 24.1 °F 26.1 °F 85% 29.42 in 10.0 mi South 5.8 mph - N/A   Partly Cloudy
10:53 AM 33.1 °F 27.7 °F 27.0 °F 78% 29.42 in 10.0 mi SW 5.8 mph - N/A   Mostly Cloudy
11:53 AM 35.1 °F 31.0 °F 28.0 °F 76% 29.40 in 10.0 mi WSW 4.6 mph - N/A   Overcast
12:53 PM 37.0 °F 31.0 °F 28.9 °F 73% 29.37 in 10.0 mi SSE 8.1 mph - N/A   Scattered Clouds
1:53 PM 37.9 °F 33.5 °F 30.0 °F 73% 29.41 in 10.0 mi SW 5.8 mph - N/A   Clear
2:53 PM 37.9 °F 32.1 °F 30.0 °F 73% 29.41 in 10.0 mi WSW 8.1 mph - N/A   Clear
3:53 PM 37.9 °F 32.7 °F 30.0 °F 73% 29.44 in 10.0 mi West 6.9 mph - N/A   Clear
4:53 PM 37.9 °F 31.5 °F 30.0 °F 73% 29.48 in 10.0 mi SW 9.2 mph - N/A   Clear
5:53 PM 37.0 °F 29.8 °F 30.0 °F 76% 29.49 in 10.0 mi West 10.4 mph - N/A   Clear
6:53 PM 36.0 °F 28.5 °F 28.9 °F 76% 29.50 in 10.0 mi WSW 10.4 mph - N/A   Clear
7:53 PM 34.0 °F 27.2 °F 28.0 °F 79% 29.52 in 10.0 mi WSW 8.1 mph - N/A   Clear
8:53 PM 32.0 °F 24.8 °F 27.0 °F 82% 29.52 in 10.0 mi WSW 8.1 mph - N/A   Clear
9:53 PM 32.0 °F 24.2 °F 27.0 °F 82% 29.54 in 10.0 mi WSW 9.2 mph - N/A   Clear
10:53 PM 33.1 °F 25.5 °F 27.0 °F 78% 29.55 in 10.0 mi West 9.2 mph - N/A   Clear
11:53 PM 32.0 °F 23.6 °F 26.1 °F 79% 29.54 in 10.0 mi West 10.4 mph - N/A   Clear